Satellite: NOAA-11
Catalog number: 19531
Epoch time: 07172.72825670
Element set: 0697
Inclination: 098.8121 deg
RA of node: 261.8353 deg
Eccentricity: 0.0011803
Arg of perigee: 022.7883 deg
Mean anomaly: 337.3835 deg
Mean motion: 14.14847716 rev/day
Decay rate: 2.22e-06 rev/day^2
Epoch rev: 96679
Checksum: 325
Satellite: NOAA-12
Catalog number: 21263
Epoch time: 07172.72502316
Element set: 0194
Inclination: 098.7517 deg
RA of node: 169.9582 deg
Eccentricity: 0.0013838
Arg of perigee: 094.3494 deg
Mean anomaly: 265.9248 deg
Mean motion: 14.25537874 rev/day
Decay rate: 1.88e-06 rev/day^2
Epoch rev: 83689
Checksum: 350
Satellite: MET-3/5
Catalog number: 21655
Epoch time: 07172.95848518
Element set: 0349
Inclination: 082.5553 deg
RA of node: 359.5713 deg
Eccentricity: 0.0012952
Arg of perigee: 191.5340 deg
Mean anomaly: 168.5487 deg
Mean motion: 13.17010015 rev/day
Decay rate: 5.1e-07 rev/day^2
Epoch rev: 76203
Checksum: 304
Satellite: MET-2/21
Catalog number: 22782
Epoch time: 07172.56329129
Element set: 0856
Inclination: 082.5479 deg
RA of node: 038.4440 deg
Eccentricity: 0.0021280
Arg of perigee: 221.3652 deg
Mean anomaly: 138.5911 deg
Mean motion: 13.83618673 rev/day
Decay rate: 9.4e-07 rev/day^2
Epoch rev: 69712
Checksum: 314
Satellite: OKEAN-4
Catalog number: 23317
Epoch time: 07172.76983846
Element set: 0297
Inclination: 082.5406 deg
RA of node: 292.2573 deg
Eccentricity: 0.0020722
Arg of perigee: 235.2185 deg
Mean anomaly: 124.7090 deg
Mean motion: 14.82512558 rev/day
Decay rate: 1.80e-06 rev/day^2
Epoch rev: 68473
Checksum: 311
Satellite: NOAA-14
Catalog number: 23455
Epoch time: 07172.89215372
Element set: 0676
Inclination: 098.9883 deg
RA of node: 239.1025 deg
Eccentricity: 0.0010406
Arg of perigee: 088.3692 deg
Mean anomaly: 271.8674 deg
Mean motion: 14.13720506 rev/day
Decay rate: -4.3e-07 rev/day^2
Epoch rev: 64330
Checksum: 310
Satellite: SICH-1
Catalog number: 23657
Epoch time: 07172.74616351
Element set: 0098
Inclination: 082.5280 deg
RA of node: 073.2270 deg
Eccentricity: 0.0022399
Arg of perigee: 226.3092 deg
Mean anomaly: 133.6251 deg
Mean motion: 14.81493265 rev/day
Decay rate: -3.7e-07 rev/day^2
Epoch rev: 63670
Checksum: 294
Satellite: NOAA-15
Catalog number: 25338
Epoch time: 07172.73686637
Element set: 0038
Inclination: 098.5297 deg
RA of node: 169.2911 deg
Eccentricity: 0.0011007
Arg of perigee: 022.1204 deg
Mean anomaly: 338.0456 deg
Mean motion: 14.24649653 rev/day
Decay rate: 1.87e-06 rev/day^2
Epoch rev: 47333
Checksum: 309
Satellite: RESURS
Catalog number: 25394
Epoch time: 07173.75881311
Element set: 670
Inclination: 098.4370 deg
RA of node: 228.0677 deg
Eccentricity: 0.0001581
Arg of perigee: 137.8609 deg
Mean anomaly: 222.2692 deg
Mean motion: 14.24138950 rev/day
Decay rate: -6.0e-08 rev/day^2
Epoch rev: 46514
Checksum: 300
Satellite: FENGYUN1
Catalog number: 25730
Epoch time: 07172.54398562
Element set: 0148
Inclination: 098.6867 deg
RA of node: 156.2455 deg
Eccentricity: 0.0021898
Arg of perigee: 113.7263 deg
Mean anomaly: 246.6233 deg
Mean motion: 14.07530300 rev/day
Decay rate: 1.32e-06 rev/day^2
Epoch rev: 41808
Checksum: 298
Satellite: OKEAN-0
Catalog number: 25860
Epoch time: 07172.57814245
Element set: 0084
Inclination: 097.7293 deg
RA of node: 174.6214 deg
Eccentricity: 0.0001654
Arg of perigee: 049.1600 deg
Mean anomaly: 310.9744 deg
Mean motion: 14.73459279 rev/day
Decay rate: 2.3e-07 rev/day^2
Epoch rev: 42614
Checksum: 296
Satellite: NOAA-16
Catalog number: 26536
Epoch time: 07172.86513799
Element set: 0452
Inclination: 099.1165 deg
RA of node: 149.8878 deg
Eccentricity: 0.0010848
Arg of perigee: 155.8902 deg
Mean anomaly: 204.2799 deg
Mean motion: 14.12432904 rev/day
Decay rate: -6.9e-07 rev/day^2
Epoch rev: 34776
Checksum: 349
Satellite: NOAA-17
Catalog number: 27453
Epoch time: 07172.87549566
Element set: 0462
Inclination: 098.5788 deg
RA of node: 242.0652 deg
Eccentricity: 0.0012828
Arg of perigee: 082.6682 deg
Mean anomaly: 277.5951 deg
Mean motion: 14.23888412 rev/day
Decay rate: 1.41e-06 rev/day^2
Epoch rev: 25938
Checksum: 347
Satellite: NOAA-18
Catalog number: 28654
Epoch time: 07172.86224537
Element set: 0000
Inclination: 098.8278 deg
RA of node: 114.0666 deg
Eccentricity: 0.0013315
Arg of perigee: 255.2327 deg
Mean anomaly: 104.7367 deg
Mean motion: 14.11072419 rev/day
Decay rate: -1.25e-06 rev/day^2
Epoch rev: 10751
Checksum: 284
/EX
SB KEPS @ AMSAT $ORB07173.M
Orbital Elements 07173.MISC
HR AMSAT ORBITAL ELEMENTS FOR MANNED AND MISCELLANEOUS SATELLITES
FROM WA5QGD FORT WORTH,TX June 22, 2007
Send SUBSCRIBE KEPS/UNSUBSCRIBE KEPS to majordomo at amsat.org only
BID: ORB07173.M
TO ALL RADIO AMATEURS BT
Satellite: HUBBLE
Catalog number: 20580
Epoch time: 07172.39871302
Element set: 0904
Inclination: 028.4680 deg
RA of node: 162.6613 deg
Eccentricity: 0.0003870
Arg of perigee: 142.4920 deg
Mean anomaly: 217.5941 deg
Mean motion: 15.00253223 rev/day
Decay rate: 3.04e-06 rev/day^2
Epoch rev: 74059
Checksum: 264
Satellite: UARS
Catalog number: 21701
Epoch time: 07173.83321597
Element set: 98
Inclination: 056.9755 deg
RA of node: 289.4356 deg
Eccentricity: 0.0090388
Arg of perigee: 199.5241 deg
Mean anomaly: 160.2347 deg
Mean motion: 15.48324713 rev/day
Decay rate: 3.907e-05 rev/day^2
Epoch rev: 86662
Checksum: 333
Satellite: PO-34
Catalog number: 25520
Epoch time: 07172.97781307
Element set: 0763
Inclination: 028.4596 deg
RA of node: 076.6871 deg
Eccentricity: 0.0005162
Arg of perigee: 305.9542 deg
Mean anomaly: 054.0578 deg
Mean motion: 15.17011225 rev/day
Decay rate: 3.25e-06 rev/day^2
Epoch rev: 47825
Checksum: 307
Satellite: ISS
Catalog number: 25544
Epoch time: 07173.95455630
Element set: 448
Inclination: 051.6339 deg
RA of node: 074.1020 deg
Eccentricity: 0.0007736
Arg of perigee: 350.5671 deg
Mean anomaly: 117.3069 deg
Mean motion: 15.78262063 rev/day
Decay rate: 1.4850e-04 rev/day^2
Epoch rev: 49168
Checksum: 302
Satellite: OO-38
Catalog number: 26063
Epoch time: 07172.62942493
Element set: 0940
Inclination: 100.2268 deg
RA of node: 176.0719 deg
Eccentricity: 0.0036962
Arg of perigee: 146.6771 deg
Mean anomaly: 213.6743 deg
Mean motion: 14.35808391 rev/day
Decay rate: -3.8e-07 rev/day^2
Epoch rev: 38768
Checksum: 328
Satellite: UWE-1
Catalog number: 28892
Epoch time: 07172.73642296
Element set: 0777
Inclination: 098.1308 deg
RA of node: 069.2912 deg
Eccentricity: 0.0018692
Arg of perigee: 097.7236 deg
Mean anomaly: 262.6076 deg
Mean motion: 14.59514822 rev/day
Decay rate: 5.6e-07 rev/day^2
Epoch rev: 08787
Checksum: 347
Satellite: CO-58
Catalog number: 28895
Epoch time: 07173.74326595
Element set: 757
Inclination: 098.1339 deg
RA of node: 070.4922 deg
Eccentricity: 0.0019078
Arg of perigee: 094.1142 deg
Mean anomaly: 266.2262 deg
Mean motion: 14.59561714 rev/day
Decay rate: 5.3e-07 rev/day^2
Epoch rev: 8790
Checksum: 338
Satellite: NCUBE2
Catalog number: 28897
Epoch time: 07172.65215800
Element set: 0283
Inclination: 098.1319 deg
RA of node: 069.3786 deg
Eccentricity: 0.0018203
Arg of perigee: 098.6818 deg
Mean anomaly: 261.6445 deg
Mean motion: 14.59724697 rev/day
Decay rate: 1.38e-06 rev/day^2
Epoch rev: 08002
Checksum: 330
Satellite: NMARS
Catalog number: 29662
Epoch time: 07126.39603970
Element set: 263
Inclination: 051.6121 deg
RA of node: 302.3682 deg
Eccentricity: 0.0004459
Arg of perigee: 252.1654 deg
Mean anomaly: 110.7411 deg
Mean motion: 16.47981436 rev/day
Decay rate: 7.031946e-02 rev/day^2
Epoch rev: 2165
Checksum: 289
Satellite: FCAL
Catalog number: 29667
Epoch time: 07173.67609717
Element set: 182
Inclination: 051.6326 deg
RA of node: 065.5058 deg
Eccentricity: 0.0014060
Arg of perigee: 012.5247 deg
Mean anomaly: 347.6129 deg
Mean motion: 15.88381746 rev/day
Decay rate: 8.417e-05 rev/day^2
Epoch rev: 2887
Checksum: 322
Satellite: FALCON
Catalog number: 30776
Epoch time: 07172.43951654
Element set: 0087
Inclination: 035.4328 deg
RA of node: 186.8855 deg
Eccentricity: 0.0000289
Arg of perigee: 104.5722 deg
Mean anomaly: 255.5026 deg
Mean motion: 15.02724230 rev/day
Decay rate: 1.34e-06 rev/day^2
Epoch rev: 01569
Checksum: 287
Satellite: MAST
Catalog number: 31126
Epoch time: 07172.80197083
Element set: 0062
Inclination: 098.0820 deg
RA of node: 245.7584 deg
Eccentricity: 0.0095222
Arg of perigee: 011.9213 deg
Mean anomaly: 348.4193 deg
Mean motion: 14.53347815 rev/day
Decay rate: 3.94e-06 rev/day^2
Epoch rev: 00952
Checksum: 287
Satellite: CAPE1
Catalog number: 31130
Epoch time: 07172.93797387
Element set: 0053
Inclination: 098.0858 deg
RA of node: 245.7395 deg
Eccentricity: 0.0102766
Arg of perigee: 012.2384 deg
Mean anomaly: 348.1274 deg
Mean motion: 14.51860008 rev/day
Decay rate: -4.6e-07 rev/day^2
Epoch rev: 00930
Checksum: 297
/EX
More information about the Keps
mailing list